Вернуться в каталог

FENGYUN 1C DEB

АктивенSSO
NORAD 31185·DEBRIS·🇨🇳 China

Запущен May 10, 1999 с Taiyuan Satellite Launch Center

Loading…

Ближайшие Пролёты (ближайшие 24 часа)

TLE

УстаревающийSource: Space-Track

Эпоха: Sep 9, 2026, 05:53 UTC

1 31185U 99025BJP 26252.24517582 -.00000098  00000-0 -35294-4 0  9990
2 31185  98.8485 245.9942 0041852  71.9712 288.6008 14.03158566661301

Отслеживайте FENGYUN 1C DEB в реальном времени с AllMySat

Download on the App Store